Flag for Canada Weather past 2 weeks in Lloydminster, Alberta, Canada

Now
77 °F

Scattered clouds.


Feels Like: 79 °F
Forecast: 52 / 78 °F
Wind: No wind

Location: Lloydminister

Current Time: Jul 28, 2014 at 5:34:56 PM

Latest Report: Jul 28, 2014 at 5:00 PM


Visibility: 15 mi

Pressure: 30.22 "Hg

Humidity: 51%

Dew point: 57 °F

Location of LloydminsterLocation

Historic Weather in Lloydminster — Graph

°F

Lloydminster temperature yesterday

Maximum temperature yesterday: 72 °F (at 4:00 PM)
Minimum temperature yesterday: 52 °F (at 4:57 AM)
Average temperature yesterday: 61 °F

Past Weeks' High & Low Weather Summary

 TemperatureHumidityPressure
High81 °F (Jul 16, 2:00 PM)100% (Jul 17, 6:00 AM)30.38 "Hg (Jul 17, 6:00 AM)
Low48 °F (Jul 14, 3:00 AM)31% (Jul 13, 4:00 PM)29.45 "Hg (Jul 25, 9:51 AM)
Average62 °F77%29.93 "Hg
* Reported Jul 13 4:00 PM — Jul 28 4:00 PM, Lloydminster, Weather by CustomWeather, © 2014

Note: Actual official high and low records may vary slightly from our data, if they occured in-between our weather recording intervals... More about our weather records

Advertising

Lloydminster weather history for previous 24 hours

 ConditionsComfort  
Time TempWeatherWind HumidityBarometerVisibility
4:00 PM
Jul 28
79 °FScattered clouds.2 mph48%30.24 "Hg15 mi
2:00 PM77 °FScattered clouds.5 mph51%30.26 "Hg15 mi
1:00 PM77 °FPassing clouds.7 mph54%30.27 "Hg15 mi
12:00 PM75 °FPassing clouds.6 mph61%30.27 "Hg15 mi
11:00 AM73 °FSunny.6 mph57%30.28 "Hg15 mi
10:00 AM73 °FSunny.5 mph57%30.28 "Hg15 mi
9:00 AM70 °FSunny.3 mph69%30.28 "Hg15 mi
8:00 AM64 °FSunny.8 mph83%30.27 "Hg15 mi
7:00 AM59 °FPassing clouds.7 mph88%30.27 "Hg15 mi
6:00 AM54 °FClear.6 mph94%30.27 "Hg9 mi
5:00 AM57 °FClear.8 mph88%30.26 "Hg9 mi
4:00 AM54 °FClear.7 mph94%30.27 "Hg9 mi
3:00 AM57 °FClear.8 mph88%30.26 "Hg9 mi
2:00 AM57 °FClear.7 mph94%30.26 "Hg9 mi
1:00 AM55 °FClear.2 mph88%30.26 "Hg9 mi
12:00 AM54 °FClear.3 mph94%30.26 "Hg9 mi
11:00 PM
Jul 27
55 °FClear.3 mph88%30.26 "Hg9 mi
10:00 PM59 °FSunny.3 mph82%30.25 "Hg9 mi
9:00 PM66 °FPassing clouds.5 mph73%30.24 "Hg15 mi
8:00 PM72 °FPassing clouds.2 mph61%30.22 "Hg15 mi
7:00 PM72 °FScattered clouds.6 mph61%30.23 "Hg15 mi
6:00 PM72 °FScattered clouds.3 mph65%30.24 "Hg15 mi
5:00 PM72 °FPartly sunny.5 mph65%30.25 "Hg15 mi
Weather by CustomWeather, © 2014

See weather overviewHow to use our weather pages